sat.trackr.live / text

‹ back to catalog

STARLINK-34511

NORAD 65214 · 2025-176S

PAYLOAD ACTIVE UNKNOWN

§ Identity

Operator
Country
US
Launch date
2025-08-14
Launch site
AFETR
Launch vehicle
Mass (kg)
RCS (m²)

Purposes: comms

External: N2YO · Heavens-Above · Gunter

§ Orbital elements

Epoch: 2026-09-20T10:33:12.218400Z

Period
93.85 min
Inclination
53.1616°
Eccentricity
0.0001278
Mean motion
15.34401422 rev/d
Perigee alt
461.8 km
Apogee alt
463.6 km
Semi-major
6,840.8 km
B*
7.7136e-4
RAAN
324.1591°
Arg perigee
83.0211°
Mean anomaly
277.0937°
Rev number
6,293

§ Raw data

STARLINK-345111 65214U 25176S   26263.43972475  .00025776  00000+0  77136-3 0  99922 65214  53.1616 324.1591 0001278  83.0211 277.0937 15.34401422 62931

JSON: /api/v1/satellites/65214 · /tle

For live sub-satellite position, see the globe view (requires WebGL).

§ Visibility from observer

Set your observer location to see the next 7 days of passes ≥ 10°. The values pass through the URL so the page stays shareable.

No JS? Fill the form by hand. The geolocation button needs JavaScript.